Time,TemperatureF,DewpointF,PressureIn,WindDirection,WindDirectionDegrees,WindSpeedMPH,WindSpeedGustMPH,Humidity,HourlyPrecipIn,Conditions,Clouds,dailyrainin,SoftwareType,DateUTC
2013-03-31 05:22:00,29.3,24.2,30.05,North,357,0.0,0.0,81,0.00,,,0.00,WeatherTracker,2013-03-31 09:22:00,
2013-03-31 05:27:00,29.1,24.3,30.05,North,357,0.0,0.0,82,0.00,,,0.00,WeatherTracker,2013-03-31 09:27:00,
2013-03-31 05:32:00,29.1,24.3,30.05,North,357,0.0,0.0,82,0.00,,,0.00,WeatherTracker,2013-03-31 09:32:00,
2013-03-31 05:37:00,29.1,24.6,30.05,North,357,0.0,0.0,83,0.00,,,0.00,WeatherTracker,2013-03-31 09:37:00,
2013-03-31 05:42:00,29.0,24.5,30.05,North,357,0.0,0.0,83,0.00,,,0.00,WeatherTracker,2013-03-31 09:42:00,
2013-03-31 05:47:00,28.9,24.4,30.05,North,357,0.0,0.0,83,0.00,,,0.00,WeatherTracker,2013-03-31 09:47:00,
2013-03-31 05:52:00,28.8,24.3,30.05,North,357,0.0,0.0,83,0.00,,,0.00,WeatherTracker,2013-03-31 09:52:00,
2013-03-31 05:57:00,28.7,24.2,30.05,North,357,0.0,0.0,83,0.00,,,0.00,WeatherTracker,2013-03-31 09:57:00,
2013-03-31 06:02:00,28.6,24.1,30.05,North,357,0.0,0.0,83,0.00,,,0.00,WeatherTracker,2013-03-31 10:02:00,
2013-03-31 06:07:00,28.6,24.1,30.05,North,357,0.0,0.0,83,0.00,,,0.00,WeatherTracker,2013-03-31 10:07:00,
2013-03-31 06:13:00,28.7,24.2,30.05,North,357,0.0,0.0,83,0.00,,,0.00,WeatherTracker,2013-03-31 10:13:00,
2013-03-31 06:18:00,28.8,24.3,30.05,North,357,0.0,0.0,83,0.00,,,0.00,WeatherTracker,2013-03-31 10:18:00,
2013-03-31 06:23:00,28.8,24.3,30.05,North,357,0.0,0.0,83,0.00,,,0.00,WeatherTracker,2013-03-31 10:23:00,
2013-03-31 06:28:00,28.7,24.2,30.05,North,357,0.0,0.0,83,0.00,,,0.00,WeatherTracker,2013-03-31 10:28:00,
2013-03-31 06:33:00,28.6,24.1,30.05,North,357,0.0,0.0,83,0.00,,,0.00,WeatherTracker,2013-03-31 10:33:00,
2013-03-31 06:38:00,28.5,24.0,30.05,North,357,0.0,0.0,83,0.00,,,0.00,WeatherTracker,2013-03-31 10:38:00,
2013-03-31 06:43:00,28.4,24.2,30.05,North,357,0.0,0.0,84,0.00,,,0.00,WeatherTracker,2013-03-31 10:43:00,
2013-03-31 06:48:00,28.5,24.0,30.05,North,357,0.0,0.0,83,0.00,,,0.00,WeatherTracker,2013-03-31 10:48:00,
2013-03-31 06:53:00,28.5,24.0,30.06,North,357,0.0,0.0,83,0.00,,,0.00,WeatherTracker,2013-03-31 10:53:00,
2013-03-31 06:58:00,28.5,24.0,30.06,North,357,0.0,0.0,83,0.00,,,0.00,WeatherTracker,2013-03-31 10:58:00,
2013-03-31 07:03:00,28.6,24.4,30.06,North,357,0.0,0.0,84,0.00,,,0.00,WeatherTracker,2013-03-31 11:03:00,
2013-03-31 07:08:00,28.8,24.6,30.06,North,357,0.0,0.0,84,0.00,,,0.00,WeatherTracker,2013-03-31 11:08:00,
2013-03-31 07:13:00,29.0,24.8,30.06,North,357,0.0,0.0,84,0.00,,,0.00,WeatherTracker,2013-03-31 11:13:00,
2013-03-31 07:18:00,29.2,25.0,30.06,North,357,0.0,0.0,84,0.00,,,0.00,WeatherTracker,2013-03-31 11:18:00,
2013-03-31 07:23:00,29.5,25.3,30.06,North,357,0.0,0.0,84,0.00,,,0.00,WeatherTracker,2013-03-31 11:23:00,
2013-03-31 07:28:00,29.9,25.1,30.06,North,357,0.0,0.0,82,0.00,,,0.00,WeatherTracker,2013-03-31 11:28:00,
2013-03-31 07:33:00,30.4,25.3,30.06,North,357,0.0,0.0,81,0.00,,,0.00,WeatherTracker,2013-03-31 11:33:00,
2013-03-31 07:38:00,30.8,25.4,30.06,North,357,0.0,0.0,80,0.00,,,0.00,WeatherTracker,2013-03-31 11:38:00,
2013-03-31 07:44:00,31.4,25.3,30.06,North,357,0.0,0.0,78,0.00,,,0.00,WeatherTracker,2013-03-31 11:44:00,
2013-03-31 08:02:00,33.9,26.5,30.06,North,357,0.0,0.0,74,0.00,,,0.00,WeatherTracker,2013-03-31 12:02:00,
2013-03-31 08:07:00,34.9,26.1,30.05,North,357,0.0,0.0,70,0.00,,,0.00,WeatherTracker,2013-03-31 12:07:00,
2013-03-31 08:13:00,35.8,26.6,30.05,North,357,0.0,0.0,69,0.00,,,0.00,WeatherTracker,2013-03-31 12:13:00,
2013-03-31 08:18:00,36.6,26.3,30.05,North,357,0.0,0.0,66,0.00,,,0.00,WeatherTracker,2013-03-31 12:18:00,
2013-03-31 08:23:00,37.3,26.3,30.05,North,357,0.0,0.0,64,0.00,,,0.00,WeatherTracker,2013-03-31 12:23:00,
2013-03-31 08:28:00,38.0,26.5,30.05,North,357,1.0,0.0,63,0.00,,,0.00,WeatherTracker,2013-03-31 12:28:00,
2013-03-31 08:33:00,38.8,26.5,30.05,North,357,0.0,0.0,61,0.00,,,0.00,WeatherTracker,2013-03-31 12:33:00,
2013-03-31 08:38:00,39.6,26.5,30.05,North,357,0.0,0.0,59,0.00,,,0.00,WeatherTracker,2013-03-31 12:38:00,
2013-03-31 08:43:00,40.5,26.9,30.04,North,357,0.0,0.0,58,0.00,,,0.00,WeatherTracker,2013-03-31 12:43:00,
2013-03-31 08:48:00,41.5,26.6,30.04,North,357,0.0,0.0,55,0.00,,,0.00,WeatherTracker,2013-03-31 12:48:00,
2013-03-31 08:53:00,42.4,25.6,30.04,North,357,0.0,0.0,51,0.00,,,0.00,WeatherTracker,2013-03-31 12:53:00,
2013-03-31 08:58:00,43.0,25.2,30.04,NW,326,0.0,0.0,49,0.00,,,0.00,WeatherTracker,2013-03-31 12:58:00,
2013-03-31 09:03:00,43.8,26.4,30.04,NW,326,0.0,0.0,50,0.00,,,0.00,WeatherTracker,2013-03-31 13:03:00,
2013-03-31 09:08:00,44.6,26.6,30.04,NW,326,0.0,0.0,49,0.01,,,0.01,WeatherTracker,2013-03-31 13:08:00,
2013-03-31 09:13:00,45.1,26.1,30.04,West,272,0.0,0.0,47,0.01,,,0.01,WeatherTracker,2013-03-31 13:13:00,
2013-03-31 09:18:00,45.4,26.4,30.04,West,272,0.0,0.0,47,0.01,,,0.01,WeatherTracker,2013-03-31 13:18:00,
2013-03-31 09:23:00,45.9,25.8,30.04,West,272,0.0,0.0,45,0.01,,,0.01,WeatherTracker,2013-03-31 13:23:00,
2013-03-31 09:28:00,46.7,26.0,30.04,West,272,0.0,0.0,44,0.01,,,0.01,WeatherTracker,2013-03-31 13:28:00,
2013-03-31 09:33:00,47.5,26.1,30.04,SW,231,1.0,0.0,43,0.01,,,0.01,WeatherTracker,2013-03-31 13:33:00,
2013-03-31 09:38:00,47.9,25.9,30.04,WSW,240,1.0,0.0,42,0.01,,,0.01,WeatherTracker,2013-03-31 13:38:00,
2013-03-31 09:44:00,48.0,26.0,30.04,WSW,254,0.0,0.0,42,0.01,,,0.01,WeatherTracker,2013-03-31 13:44:00,
2013-03-31 09:49:00,48.5,25.9,30.04,SSE,165,0.0,0.0,41,0.01,,,0.01,WeatherTracker,2013-03-31 13:49:00,
2013-03-31 09:54:00,49.3,26.0,30.04,SE,134,2.0,0.0,40,0.01,,,0.01,WeatherTracker,2013-03-31 13:54:00,
2013-03-31 09:59:00,49.8,25.8,30.04,WSW,245,2.0,0.0,39,0.01,,,0.01,WeatherTracker,2013-03-31 13:59:00,
2013-03-31 10:04:00,50.3,26.3,30.03,South,178,0.0,0.0,39,0.01,,,0.01,WeatherTracker,2013-03-31 14:04:00,
2013-03-31 10:09:00,50.5,25.2,30.03,WSW,241,4.0,0.0,37,0.00,,,0.01,WeatherTracker,2013-03-31 14:09:00,
2013-03-31 10:14:00,50.9,24.9,30.03,SSE,161,4.0,0.0,36,0.00,,,0.01,WeatherTracker,2013-03-31 14:14:00,
2013-03-31 10:19:00,51.5,25.4,30.03,SE,134,0.0,0.0,36,0.00,,,0.01,WeatherTracker,2013-03-31 14:19:00,
2013-03-31 10:24:00,52.5,25.6,30.02,SSE,160,0.0,0.0,35,0.00,,,0.01,WeatherTracker,2013-03-31 14:24:00,
2013-03-31 10:29:00,53.0,24.7,30.03,SSE,161,3.0,0.0,33,0.00,,,0.01,WeatherTracker,2013-03-31 14:29:00,
2013-03-31 10:34:00,53.1,24.8,30.03,SE,135,0.0,0.0,33,0.00,,,0.01,WeatherTracker,2013-03-31 14:34:00,
2013-03-31 10:39:00,53.7,26.0,30.02,SSE,157,0.0,0.0,34,0.00,,,0.01,WeatherTracker,2013-03-31 14:39:00,
2013-03-31 10:44:00,54.4,24.4,30.02,SW,216,0.0,0.0,31,0.00,,,0.01,WeatherTracker,2013-03-31 14:44:00,
2013-03-31 10:49:00,54.8,24.8,30.02,SSW,209,3.0,0.0,31,0.00,,,0.01,WeatherTracker,2013-03-31 14:49:00,
2013-03-31 10:54:00,55.0,24.1,30.02,West,275,0.0,0.0,30,0.00,,,0.01,WeatherTracker,2013-03-31 14:54:00,
2013-03-31 10:59:00,55.3,24.4,30.02,SW,235,2.0,0.0,30,0.01,,,0.02,WeatherTracker,2013-03-31 14:59:00,
2013-03-31 11:04:00,55.1,23.4,30.02,SSE,155,6.0,0.0,29,0.01,,,0.02,WeatherTracker,2013-03-31 15:04:00,
2013-03-31 11:09:00,55.2,24.3,30.02,SSE,156,2.0,0.0,30,0.01,,,0.02,WeatherTracker,2013-03-31 15:09:00,
2013-03-31 11:14:00,55.4,23.7,30.02,South,175,2.0,0.0,29,0.01,,,0.02,WeatherTracker,2013-03-31 15:14:00,
2013-03-31 11:19:00,56.2,23.5,30.02,West,275,1.0,0.0,28,0.01,,,0.02,WeatherTracker,2013-03-31 15:19:00,
2013-03-31 11:25:00,56.3,22.8,30.02,SSE,154,5.0,0.0,27,0.01,,,0.02,WeatherTracker,2013-03-31 15:25:00,
2013-03-31 11:30:00,56.0,23.4,30.02,SSE,154,2.0,0.0,28,0.01,,,0.02,WeatherTracker,2013-03-31 15:30:00,
2013-03-31 11:35:00,56.3,24.5,30.01,WSW,240,7.0,0.0,29,0.01,,,0.02,WeatherTracker,2013-03-31 15:35:00,
2013-03-31 11:40:00,56.7,24.8,30.01,SE,130,5.0,0.0,29,0.01,,,0.02,WeatherTracker,2013-03-31 15:40:00,
2013-03-31 11:45:00,56.5,23.8,30.01,South,188,6.0,0.0,28,0.01,,,0.02,WeatherTracker,2013-03-31 15:45:00,
2013-03-31 11:50:00,56.6,23.0,30.01,South,175,2.0,0.0,27,0.01,,,0.02,WeatherTracker,2013-03-31 15:50:00,
2013-03-31 11:55:00,56.7,23.1,30.01,SE,145,6.0,0.0,27,0.01,,,0.02,WeatherTracker,2013-03-31 15:55:00,
2013-03-31 12:00:00,56.7,24.0,30.00,SSW,200,2.0,0.0,28,0.00,,,0.02,WeatherTracker,2013-03-31 16:00:00,
2013-03-31 12:05:00,57.4,22.8,30.00,South,170,6.0,0.0,26,0.00,,,0.02,WeatherTracker,2013-03-31 16:05:00,
2013-03-31 12:10:00,57.3,22.7,30.00,South,171,1.0,0.0,26,0.00,,,0.02,WeatherTracker,2013-03-31 16:10:00,
2013-03-31 12:15:00,57.5,22.9,30.00,SSE,156,4.0,0.0,26,0.00,,,0.02,WeatherTracker,2013-03-31 16:15:00,
2013-03-31 12:20:00,57.9,23.2,30.00,South,171,0.0,0.0,26,0.00,,,0.02,WeatherTracker,2013-03-31 16:20:00,
2013-03-31 12:25:00,57.9,22.3,29.99,SE,145,7.0,0.0,25,0.00,,,0.02,WeatherTracker,2013-03-31 16:25:00,
2013-03-31 12:30:00,57.5,22.0,29.99,South,178,2.0,0.0,25,0.00,,,0.02,WeatherTracker,2013-03-31 16:30:00,
2013-03-31 12:35:00,57.2,21.7,29.99,South,171,8.0,0.0,25,0.00,,,0.02,WeatherTracker,2013-03-31 16:35:00,
2013-03-31 12:40:00,57.2,21.7,29.99,SW,236,2.0,0.0,25,0.00,,,0.02,WeatherTracker,2013-03-31 16:40:00,
2013-03-31 12:45:00,57.8,23.1,29.98,SE,146,3.0,0.0,26,0.00,,,0.02,WeatherTracker,2013-03-31 16:45:00,
2013-03-31 12:50:00,58.2,23.5,29.98,SSE,149,3.0,0.0,26,0.00,,,0.02,WeatherTracker,2013-03-31 16:50:00,
2013-03-31 12:55:00,57.8,22.2,29.98,SSE,166,5.0,0.0,25,0.00,,,0.02,WeatherTracker,2013-03-31 16:55:00,
2013-03-31 13:00:00,57.9,23.2,29.98,South,188,3.0,0.0,26,0.00,,,0.02,WeatherTracker,2013-03-31 17:00:00,
2013-03-31 13:05:00,58.3,22.6,29.98,SE,129,4.0,0.0,25,0.00,,,0.02,WeatherTracker,2013-03-31 17:05:00,
2013-03-31 13:11:00,58.3,22.6,29.97,WSW,242,1.0,0.0,25,0.00,,,0.02,WeatherTracker,2013-03-31 17:11:00,
2013-03-31 13:16:00,58.2,22.6,29.97,SW,217,4.0,0.0,25,0.00,,,0.02,WeatherTracker,2013-03-31 17:16:00,
2013-03-31 13:21:00,58.3,22.6,29.97,South,170,0.0,0.0,25,0.00,,,0.02,WeatherTracker,2013-03-31 17:21:00,
2013-03-31 13:26:00,58.4,21.8,29.96,SSE,161,3.0,0.0,24,0.00,,,0.02,WeatherTracker,2013-03-31 17:26:00,
2013-03-31 13:31:00,58.0,23.3,29.96,South,188,5.0,0.0,26,0.00,,,0.02,WeatherTracker,2013-03-31 17:31:00,
2013-03-31 13:36:00,58.2,23.5,29.96,South,169,3.0,0.0,26,0.00,,,0.02,WeatherTracker,2013-03-31 17:36:00,
2013-03-31 13:41:00,58.2,22.6,29.95,WNW,283,0.0,0.0,25,0.00,,,0.02,WeatherTracker,2013-03-31 17:41:00,